DLH4PH EDDF-EGLL

Flight info

Callsign DLH4PH
Flight time N/A
Altitude 38000
Route OBOKA2E/07C OBOKA Z29 TORNU DCT ABNED L980 LOGAN
Aircraft A20N/M-SDE2E3FGIJ1LORWXYZ/HB1

Departure

Time 2026-04-15 09:19
Airport Frankfurt Main Airport (EDDF)

Arrival

Time N/A
Airport London Heathrow Airport (EGLL)
Time Latitude Longitude Altitude Speed Heading
2026-04-15 08:50 50.04806 8.56586 356 ft 0 kts 339°
2026-04-15 09:05 50.04802 8.56589 357 ft 3 kts 341°
2026-04-15 09:06 50.04776 8.56597 357 ft 4 kts 353°
2026-04-15 09:06 50.04754 8.56606 360 ft 4 kts 290°
2026-04-15 09:06 50.04751 8.56636 357 ft 4 kts 257°
2026-04-15 09:06 50.04764 8.56664 364 ft 4 kts 202°
2026-04-15 09:07 50.04778 8.56672 358 ft 1 kts 204°
2026-04-15 09:11 50.04777 8.56672 358 ft 1 kts 204°
2026-04-15 09:11 50.04767 8.56665 361 ft 3 kts 204°
2026-04-15 09:12 50.04737 8.56633 361 ft 7 kts 225°
2026-04-15 09:12 50.04712 8.56577 359 ft 6 kts 240°
2026-04-15 09:12 50.04688 8.56500 363 ft 10 kts 245°
2026-04-15 09:12 50.04655 8.56385 364 ft 14 kts 248°
2026-04-15 09:13 50.04618 8.56227 360 ft 17 kts 249°
2026-04-15 09:13 50.04574 8.56039 363 ft 19 kts 248°
2026-04-15 09:13 50.04490 8.55940 361 ft 10 kts 196°
2026-04-15 09:13 50.04411 8.55909 359 ft 13 kts 186°
2026-04-15 09:14 50.04313 8.55949 359 ft 16 kts 158°
2026-04-15 09:14 50.04243 8.55941 364 ft 11 kts 205°
2026-04-15 09:14 50.04169 8.55928 358 ft 9 kts 163°
2026-04-15 09:14 50.04100 8.55970 358 ft 12 kts 173°
2026-04-15 09:15 50.04032 8.55886 363 ft 15 kts 248°
2026-04-15 09:15 50.03991 8.55714 361 ft 19 kts 249°
2026-04-15 09:15 50.03948 8.55530 362 ft 17 kts 250°
2026-04-15 09:15 50.03908 8.55356 364 ft 17 kts 249°
2026-04-15 09:16 50.03864 8.55175 361 ft 19 kts 249°
2026-04-15 09:16 50.03811 8.54968 359 ft 22 kts 246°
2026-04-15 09:16 50.03757 8.54754 359 ft 19 kts 252°
2026-04-15 09:16 50.03712 8.54540 359 ft 22 kts 249°
2026-04-15 09:17 50.03667 8.54354 362 ft 15 kts 245°
2026-04-15 09:17 50.03599 8.54316 361 ft 11 kts 166°
2026-04-15 09:17 50.03519 8.54362 357 ft 10 kts 158°
2026-04-15 09:17 50.03485 8.54397 357 ft 5 kts 110°
2026-04-15 09:18 50.03501 8.54463 355 ft 0 kts 67°
2026-04-15 09:18 50.03505 8.54480 357 ft 16 kts 69°
2026-04-15 09:18 50.03638 8.55022 355 ft 88 kts 69°
2026-04-15 09:18 50.03915 8.56193 358 ft 140 kts 70°
2026-04-15 09:19 50.04295 8.57758 626 ft 159 kts 69°
2026-04-15 09:19 50.04677 8.59326 1311 ft 154 kts 70°
2026-04-15 09:19 50.05027 8.60857 2135 ft 149 kts 72°
2026-04-15 09:19 50.05425 8.62382 2655 ft 157 kts 60°
2026-04-15 09:20 50.06217 8.63658 3054 ft 174 kts 33°
2026-04-15 09:20 50.07452 8.64097 3499 ft 197 kts 356°
2026-04-15 09:20 50.08881 8.63794 3988 ft 217 kts 354°
2026-04-15 09:20 50.10428 8.63517 4824 ft 228 kts 356°
2026-04-15 09:21 50.12051 8.63042 5595 ft 250 kts 338°
2026-04-15 09:21 50.13511 8.61389 6292 ft 271 kts 312°
2026-04-15 09:21 50.14682 8.59059 7289 ft 274 kts 304°
2026-04-15 09:21 50.15749 8.56618 8316 ft 279 kts 303°
2026-04-15 09:22 50.16858 8.54106 9354 ft 283 kts 304°
2026-04-15 09:22 50.18018 8.51591 10360 ft 289 kts 306°
2026-04-15 09:22 50.19247 8.49015 11008 ft 306 kts 306°
2026-04-15 09:22 50.20575 8.46258 11440 ft 329 kts 305°
2026-04-15 09:23 50.21908 8.43208 11772 ft 352 kts 301°
2026-04-15 09:23 50.23095 8.39725 11976 ft 376 kts 294°
2026-04-15 09:23 50.24080 8.35805 12012 ft 401 kts 297°
2026-04-15 09:23 50.25644 8.32119 12023 ft 424 kts 308°
2026-04-15 09:24 50.27476 8.28387 12232 ft 439 kts 306°
2026-04-15 09:24 50.29321 8.24494 12471 ft 452 kts 308°
2026-04-15 09:24 50.31212 8.20487 12548 ft 466 kts 304°
2026-04-15 09:24 50.32589 8.15846 12524 ft 478 kts 287°
2026-04-15 09:25 50.33308 8.10802 12663 ft 462 kts 279°
2026-04-15 09:25 50.33613 8.05970 12783 ft 432 kts 274°
2026-04-15 09:25 50.33576 8.01403 12836 ft 409 kts 265°
2026-04-15 09:25 50.33171 7.97060 12892 ft 400 kts 259°
2026-04-15 09:26 50.32505 7.92928 12936 ft 393 kts 254°
2026-04-15 09:26 50.31631 7.88927 13122 ft 384 kts 251°
2026-04-15 09:26 50.30720 7.85055 13322 ft 375 kts 251°
2026-04-15 09:26 50.29869 7.81264 13608 ft 364 kts 252°
2026-04-15 09:27 50.29065 7.77558 13860 ft 356 kts 253°
2026-04-15 09:27 50.28360 7.73882 13782 ft 348 kts 256°
2026-04-15 09:27 50.27820 7.70252 13435 ft 339 kts 258°
2026-04-15 09:27 50.27202 7.66743 13108 ft 330 kts 252°
2026-04-15 09:28 50.26434 7.63411 12776 ft 322 kts 251°
2026-04-15 09:28 50.25672 7.60164 12420 ft 316 kts 252°
2026-04-15 09:28 50.24974 7.56907 11931 ft 315 kts 252°
2026-04-15 09:28 50.24326 7.53707 11491 ft 312 kts 254°